Location: Fatehalanka
(16.3139°N, 80.8379°E)
Time: 11:15:05
(UTC+00:00)

ARIANE 6 FM1 Upper Stage - Pass Details

Date: 14 May 2026
Orbit: 528 x 599 km, 62.0° (Epoch: 6 June)

Event Time Altitude Azimuth Distance (km) Brightness Sun altitude
Rises 13:24:51 0° 339° (NNW) 2,654 6.8 -6.5°
Reaches altitude 10° 13:27:04 10° 343° (NNW) 1,768 5.8 -7.0°
Maximum altitude 13:30:58 57° 63° (ENE) 626 2.7 -7.9°
Drops below altitude 10° 13:34:55 10° 143° (SE) 1,791 4.7 -8.8°
Enters shadow 13:35:23 - 144° (SE) 1,979 4.9 -8.9°
